Time,TemperatureF,DewpointF,PressureIn,WindDirection,WindDirectionDegrees,WindSpeedMPH,WindSpeedGustMPH,Humidity,HourlyPrecipIn,Conditions,Clouds,dailyrainin,SoftwareType,DateUTC
2013-05-23 00:01:00,74.4,68.9,29.85,SSE,158,0.3,2.3,83,0.00,RA,,0.00,WeatherDisplay:10.37,2013-05-23 04:01:00,
2013-05-23 00:02:00,74.3,68.8,29.85,SSE,165,0.3,1.2,83,0.00,RA,,0.00,WeatherDisplay:10.37,2013-05-23 04:02:00,
2013-05-23 00:07:00,73.7,68.2,29.85,WSW,243,1.0,4.0,83,0.00,RA,,0.00,WeatherDisplay:10.37,2013-05-23 04:07:00,
2013-05-23 00:12:00,73.3,67.8,29.84,WSW,242,0.0,1.2,83,0.00,CLR,,0.00,WeatherDisplay:10.37,2013-05-23 04:12:00,
2013-05-23 00:17:00,73.1,67.6,29.84,WSW,242,0.0,1.2,83,0.00,CLR,,0.00,WeatherDisplay:10.37,2013-05-23 04:17:00,
2013-05-23 00:22:00,72.8,67.3,29.84,WSW,242,0.0,0.0,83,0.00,CLR,,0.00,WeatherDisplay:10.37,2013-05-23 04:22:00,
2013-05-23 00:27:00,72.4,66.9,29.84,WSW,242,0.0,0.0,83,0.00,CLR,,0.00,WeatherDisplay:10.37,2013-05-23 04:27:00,
2013-05-23 00:32:00,71.9,66.5,29.84,WSW,241,0.0,0.0,83,0.00,CLR,,0.00,WeatherDisplay:10.37,2013-05-23 04:32:00,
2013-05-23 00:37:00,71.4,66.3,29.84,WSW,241,0.0,0.0,84,0.00,CLR,,0.00,WeatherDisplay:10.37,2013-05-23 04:37:00,
2013-05-23 00:42:00,70.8,65.4,29.84,WSW,241,0.9,1.2,83,0.00,CLR,,0.00,WeatherDisplay:10.37,2013-05-23 04:42:00,
2013-05-23 00:47:00,70.3,65.2,29.84,WSW,241,0.1,1.2,84,0.00,CLR,,0.00,WeatherDisplay:10.37,2013-05-23 04:47:00,
2013-05-23 00:52:00,69.8,65.1,29.83,WSW,241,0.0,0.0,85,0.00,CLR,,0.00,WeatherDisplay:10.37,2013-05-23 04:52:00,
2013-05-23 00:57:00,69.3,64.6,29.84,WSW,241,0.0,0.0,85,0.00,CLR,,0.00,WeatherDisplay:10.37,2013-05-23 04:57:00,
2013-05-23 01:02:00,68.9,64.5,29.83,WSW,241,0.0,0.0,86,0.00,CLR,,0.00,WeatherDisplay:10.37,2013-05-23 05:02:00,
2013-05-23 01:07:00,68.5,64.8,29.83,WSW,241,0.8,1.2,88,0.00,CLR,,0.00,WeatherDisplay:10.37,2013-05-23 05:07:00,
2013-05-23 01:12:00,68.2,64.5,29.83,WSW,241,0.8,1.2,88,0.00,CLR,,0.00,WeatherDisplay:10.37,2013-05-23 05:12:00,
2013-05-23 01:17:00,67.7,63.7,29.83,WSW,241,0.0,0.0,87,0.00,CLR,,0.00,WeatherDisplay:10.37,2013-05-23 05:17:00,
2013-05-23 01:22:00,67.3,63.6,29.83,WSW,241,0.0,0.0,88,0.00,CLR,,0.00,WeatherDisplay:10.37,2013-05-23 05:22:00,
2013-05-23 01:27:00,67.0,63.3,29.83,WSW,241,0.0,0.0,88,0.00,CLR,,0.00,WeatherDisplay:10.37,2013-05-23 05:27:00,
2013-05-23 01:32:00,66.5,62.8,29.83,WSW,241,0.7,2.3,88,0.00,CLR,,0.00,WeatherDisplay:10.37,2013-05-23 05:32:00,
2013-05-23 01:37:00,66.0,62.7,29.82,WSW,241,0.0,0.0,89,0.00,CLR,,0.00,WeatherDisplay:10.37,2013-05-23 05:37:00,
2013-05-23 01:42:00,65.6,62.3,29.82,WSW,241,0.0,0.0,89,0.00,CLR,,0.00,WeatherDisplay:10.37,2013-05-23 05:42:00,
2013-05-23 01:47:00,65.2,61.9,29.83,WSW,241,0.3,1.2,89,0.00,CLR,,0.00,WeatherDisplay:10.37,2013-05-23 05:47:00,
2013-05-23 01:52:00,64.9,62.2,29.83,WSW,241,1.1,2.3,91,0.00,CLR,,0.00,WeatherDisplay:10.37,2013-05-23 05:52:00,
2013-05-23 01:57:00,64.7,62.0,29.83,WSW,241,0.0,0.0,91,0.00,CLR,,0.00,WeatherDisplay:10.37,2013-05-23 05:57:00,
2013-05-23 02:02:00,64.6,61.9,29.82,WSW,241,0.0,0.0,91,0.00,CLR,,0.00,WeatherDisplay:10.37,2013-05-23 06:02:00,
2013-05-23 02:07:00,64.7,62.0,29.82,WSW,240,0.8,1.2,91,0.00,CLR,,0.00,WeatherDisplay:10.37,2013-05-23 06:07:00,
2013-05-23 02:12:00,64.8,62.1,29.82,WSW,240,0.0,0.0,91,0.00,CLR,,0.00,WeatherDisplay:10.37,2013-05-23 06:12:00,
2013-05-23 02:17:00,64.8,62.1,29.82,WSW,240,0.0,0.0,91,0.00,CLR,,0.00,WeatherDisplay:10.37,2013-05-23 06:17:00,
2013-05-23 02:22:00,64.6,61.9,29.82,WSW,240,0.0,1.2,91,0.00,CLR,,0.00,WeatherDisplay:10.37,2013-05-23 06:22:00,
2013-05-23 02:27:00,64.2,61.5,29.82,WSW,240,1.2,2.3,91,0.00,CLR,,0.00,WeatherDisplay:10.37,2013-05-23 06:27:00,
2013-05-23 02:32:00,63.9,61.2,29.82,WSW,240,0.0,0.0,91,0.00,CLR,,0.00,WeatherDisplay:10.37,2013-05-23 06:32:00,
2013-05-23 02:37:00,63.6,60.9,29.81,WSW,242,1.4,2.3,91,0.00,CLR,,0.00,WeatherDisplay:10.37,2013-05-23 06:37:00,
2013-05-23 02:42:00,63.3,60.6,29.81,WSW,242,0.8,2.3,91,0.00,CLR,,0.00,WeatherDisplay:10.37,2013-05-23 06:42:00,
2013-05-23 02:47:00,63.1,60.7,29.81,West,277,1.1,2.3,92,0.00,CLR,,0.00,WeatherDisplay:10.37,2013-05-23 06:47:00,
2013-05-23 02:52:00,62.9,60.5,29.81,West,277,0.7,1.2,92,0.00,CLR,,0.00,WeatherDisplay:10.37,2013-05-23 06:52:00,
2013-05-23 02:57:00,62.9,60.5,29.81,West,277,0.0,0.0,92,0.00,CLR,,0.00,WeatherDisplay:10.37,2013-05-23 06:57:00,
2013-05-23 03:02:00,63.0,60.3,29.81,West,277,0.0,0.0,91,0.00,CLR,,0.00,WeatherDisplay:10.37,2013-05-23 07:02:00,
2013-05-23 03:07:00,63.1,60.4,29.81,West,277,0.0,0.0,91,0.00,CLR,,0.00,WeatherDisplay:10.37,2013-05-23 07:07:00,
2013-05-23 03:12:00,63.2,60.5,29.81,West,277,0.0,0.0,91,0.00,CLR,,0.00,WeatherDisplay:10.37,2013-05-23 07:12:00,
2013-05-23 03:17:00,63.2,60.5,29.81,West,277,1.1,2.3,91,0.00,CLR,,0.00,WeatherDisplay:10.37,2013-05-23 07:17:00,
2013-05-23 03:22:00,63.1,60.7,29.81,West,277,1.3,2.3,92,0.00,CLR,,0.00,WeatherDisplay:10.37,2013-05-23 07:22:00,
2013-05-23 03:27:00,63.0,60.6,29.81,West,277,1.0,1.2,92,0.00,CLR,,0.00,WeatherDisplay:10.37,2013-05-23 07:27:00,
2013-05-23 03:32:00,62.8,60.4,29.81,West,277,0.1,1.2,92,0.00,CLR,,0.00,WeatherDisplay:10.37,2013-05-23 07:32:00,
2013-05-23 03:37:00,62.7,60.0,29.81,West,277,0.9,1.2,91,0.00,CLR,,0.00,WeatherDisplay:10.37,2013-05-23 07:37:00,
2013-05-23 03:42:00,62.6,59.9,29.80,WNW,285,1.3,2.3,91,0.00,CLR,,0.00,WeatherDisplay:10.37,2013-05-23 07:42:00,
2013-05-23 03:47:00,62.5,60.1,29.80,WNW,303,2.6,3.5,92,0.00,CLR,,0.00,WeatherDisplay:10.37,2013-05-23 07:47:00,
2013-05-23 03:52:00,62.4,60.0,29.80,WNW,303,1.8,2.0,92,0.00,CLR,,0.00,WeatherDisplay:10.37,2013-05-23 07:52:00,
2013-05-23 03:57:00,62.4,60.0,29.81,WNW,303,0.3,1.2,92,0.00,CLR,,0.00,WeatherDisplay:10.37,2013-05-23 07:57:00,
2013-05-23 04:02:00,62.6,59.9,29.81,WNW,288,1.5,3.5,91,0.00,CLR,,0.00,WeatherDisplay:10.37,2013-05-23 08:02:00,
2013-05-23 04:07:00,62.9,59.9,29.81,WNW,288,0.4,2.3,90,0.00,CLR,,0.00,WeatherDisplay:10.37,2013-05-23 08:07:00,
2013-05-23 04:12:00,63.2,60.2,29.82,WNW,288,0.0,1.2,90,0.00,CLR,,0.00,WeatherDisplay:10.37,2013-05-23 08:12:00,
2013-05-23 04:17:00,63.4,60.4,29.82,WNW,288,0.2,2.3,90,0.00,CLR,,0.00,WeatherDisplay:10.37,2013-05-23 08:17:00,
2013-05-23 04:22:00,63.5,60.8,29.82,WNW,288,0.2,0.0,91,0.00,CLR,,0.00,WeatherDisplay:10.37,2013-05-23 08:22:00,
2013-05-23 04:27:00,63.8,60.8,29.82,West,277,1.7,2.3,90,0.00,CLR,,0.00,WeatherDisplay:10.37,2013-05-23 08:27:00,
2013-05-23 04:32:00,64.3,61.0,29.82,SW,217,1.2,2.3,89,0.00,CLR,,0.00,WeatherDisplay:10.37,2013-05-23 08:32:00,
2013-05-23 04:37:00,64.1,61.4,29.82,SW,217,0.0,0.0,91,0.00,CLR,,0.00,WeatherDisplay:10.37,2013-05-23 08:37:00,
2013-05-23 04:42:00,64.1,61.4,29.83,SW,217,0.0,1.2,91,0.00,CLR,,0.00,WeatherDisplay:10.37,2013-05-23 08:42:00,
2013-05-23 04:47:00,64.2,61.5,29.83,SW,217,0.0,0.0,91,0.00,CLR,,0.00,WeatherDisplay:10.37,2013-05-23 08:47:00,
2013-05-23 04:52:00,64.4,61.4,29.82,SW,217,0.0,0.0,90,0.00,CLR,,0.00,WeatherDisplay:10.37,2013-05-23 08:52:00,
2013-05-23 04:57:00,64.7,61.7,29.82,SW,217,0.2,0.0,90,0.00,CLR,,0.00,WeatherDisplay:10.37,2013-05-23 08:57:00,
2013-05-23 05:02:00,65.0,61.7,29.83,SW,217,0.0,0.0,89,0.00,CLR,,0.00,WeatherDisplay:10.37,2013-05-23 09:02:00,
2013-05-23 05:08:00,65.5,62.2,29.83,SW,217,0.4,0.0,89,0.00,CLR,,0.00,WeatherDisplay:10.37,2013-05-23 09:08:00,
2013-05-23 05:13:00,66.9,63.6,29.83,SW,233,1.7,2.3,89,0.00,CLR,,0.00,WeatherDisplay:10.37,2013-05-23 09:13:00,
2013-05-23 05:18:00,67.4,64.0,29.83,WSW,239,2.0,3.5,89,0.00,CLR,,0.00,WeatherDisplay:10.37,2013-05-23 09:18:00,
2013-05-23 05:23:00,67.8,64.4,29.83,West,264,1.4,2.3,89,0.00,CLR,,0.00,WeatherDisplay:10.37,2013-05-23 09:23:00,
2013-05-23 05:28:00,67.9,64.5,29.83,SSE,158,1.4,3.5,89,0.00,CLR,,0.00,WeatherDisplay:10.37,2013-05-23 09:28:00,
2013-05-23 05:33:00,67.9,64.5,29.83,SW,214,0.0,0.0,89,0.00,CLR,,0.00,WeatherDisplay:10.37,2013-05-23 09:33:00,
2013-05-23 05:38:00,68.0,65.0,29.83,SW,223,0.0,0.0,90,0.00,CLR,,0.00,WeatherDisplay:10.37,2013-05-23 09:38:00,
2013-05-23 05:43:00,68.1,65.1,29.83,SSE,157,2.2,3.5,90,0.00,CLR,,0.00,WeatherDisplay:10.37,2013-05-23 09:43:00,
2013-05-23 05:48:00,68.1,65.1,29.83,WSW,251,0.3,1.2,90,0.00,CLR,,0.00,WeatherDisplay:10.37,2013-05-23 09:48:00,
2013-05-23 05:53:00,68.1,65.4,29.84,SSW,202,0.3,2.3,91,0.00,CLR,,0.00,WeatherDisplay:10.37,2013-05-23 09:53:00,
2013-05-23 05:58:00,68.0,65.3,29.84,South,182,0.2,0.0,91,0.00,CLR,,0.00,WeatherDisplay:10.37,2013-05-23 09:58:00,
2013-05-23 06:03:00,67.9,65.2,29.84,South,182,0.0,0.0,91,0.00,CLR,,0.00,WeatherDisplay:10.37,2013-05-23 10:03:00,
2013-05-23 06:08:00,67.9,65.2,29.84,South,182,0.0,0.0,91,0.00,CLR,,0.00,WeatherDisplay:10.37,2013-05-23 10:08:00,
2013-05-23 06:13:00,67.9,65.2,29.84,South,185,0.2,0.0,91,0.00,CLR,,0.00,WeatherDisplay:10.37,2013-05-23 10:13:00,
2013-05-23 06:18:00,67.9,65.2,29.84,South,185,0.3,1.2,91,0.00,CLR,,0.00,WeatherDisplay:10.37,2013-05-23 10:18:00,
2013-05-23 06:23:00,68.0,65.3,29.84,SSW,202,0.7,3.5,91,0.00,CLR,,0.00,WeatherDisplay:10.37,2013-05-23 10:23:00,
2013-05-23 06:28:00,68.2,65.5,29.84,ESE,115,0.9,1.2,91,0.00,CLR,,0.00,WeatherDisplay:10.37,2013-05-23 10:28:00,
2013-05-23 06:33:00,68.3,65.6,29.84,South,169,0.9,2.3,91,0.00,CLR,,0.00,WeatherDisplay:10.37,2013-05-23 10:33:00,
2013-05-23 06:38:00,68.3,65.6,29.84,SSW,194,2.0,3.5,91,0.00,CLR,,0.00,WeatherDisplay:10.37,2013-05-23 10:38:00,
2013-05-23 06:43:00,68.5,65.8,29.84,South,191,0.3,1.2,91,0.00,CLR,,0.00,WeatherDisplay:10.37,2013-05-23 10:43:00,
2013-05-23 06:48:00,68.6,65.9,29.84,ESE,111,0.7,2.3,91,0.00,CLR,,0.00,WeatherDisplay:10.37,2013-05-23 10:48:00,
2013-05-23 06:53:00,68.9,66.2,29.84,SSE,167,1.5,3.5,91,0.00,CLR,,0.00,WeatherDisplay:10.37,2013-05-23 10:53:00,
2013-05-23 06:58:00,69.2,66.5,29.84,West,261,0.7,3.5,91,0.00,CLR,,0.00,WeatherDisplay:10.37,2013-05-23 10:58:00,
2013-05-23 07:03:00,69.6,66.9,29.84,WSW,251,1.0,3.5,91,0.00,CLR,,0.00,WeatherDisplay:10.37,2013-05-23 11:03:00,
2013-05-23 07:08:00,70.0,67.3,29.84,SSW,205,0.8,2.3,91,0.00,CLR,,0.00,WeatherDisplay:10.37,2013-05-23 11:08:00,
2013-05-23 07:13:00,70.3,67.5,29.84,WSW,251,1.2,2.3,91,0.00,CLR,,0.00,WeatherDisplay:10.37,2013-05-23 11:13:00,
2013-05-23 07:18:00,70.6,67.5,29.85,WSW,246,0.9,2.3,90,0.00,CLR,,0.00,WeatherDisplay:10.37,2013-05-23 11:18:00,
2013-05-23 07:23:00,70.7,67.6,29.85,South,174,1.1,3.5,90,0.00,CLR,,0.00,WeatherDisplay:10.37,2013-05-23 11:23:00,
2013-05-23 07:28:00,70.8,67.7,29.84,SSE,159,1.9,3.5,90,0.00,CLR,,0.00,WeatherDisplay:10.37,2013-05-23 11:28:00,
2013-05-23 07:33:00,71.0,67.9,29.85,SSW,193,0.7,1.2,90,0.00,CLR,,0.00,WeatherDisplay:10.37,2013-05-23 11:33:00,
2013-05-23 07:38:00,70.8,67.7,29.85,West,275,1.4,3.5,90,0.10,RA,,0.10,WeatherDisplay:10.37,2013-05-23 11:38:00,
2013-05-23 07:43:00,69.9,67.2,29.86,SW,234,4.1,6.9,91,0.17,RA,,0.17,WeatherDisplay:10.37,2013-05-23 11:43:00,
2013-05-23 07:48:00,69.3,66.6,29.86,South,189,4.5,6.9,91,0.22,RA,,0.22,WeatherDisplay:10.37,2013-05-23 11:48:00,
2013-05-23 07:53:00,69.0,66.3,29.86,SW,217,2.4,4.6,91,0.24,RA,,0.24,WeatherDisplay:10.37,2013-05-23 11:53:00,
2013-05-23 07:58:00,68.8,66.1,29.86,WSW,241,0.4,2.3,91,0.24,RA,,0.24,WeatherDisplay:10.37,2013-05-23 11:58:00,
2013-05-23 08:03:00,68.7,66.0,29.85,SSE,153,0.2,1.2,91,0.24,,,0.24,WeatherDisplay:10.37,2013-05-23 12:03:00,
2013-05-23 08:08:00,68.9,65.8,29.85,SSE,153,0.0,0.0,90,0.24,CLR,,0.24,WeatherDisplay:10.37,2013-05-23 12:08:00,
2013-05-23 08:13:00,69.0,65.9,29.85,SSE,153,0.1,1.2,90,0.24,CLR,,0.24,WeatherDisplay:10.37,2013-05-23 12:13:00,
2013-05-23 08:18:00,69.2,66.1,29.85,SSE,153,0.0,0.0,90,0.24,CLR,,0.24,WeatherDisplay:10.37,2013-05-23 12:18:00,
2013-05-23 08:23:00,69.2,66.1,29.85,East,92,0.1,1.2,90,0.24,CLR,,0.24,WeatherDisplay:10.37,2013-05-23 12:23:00,
2013-05-23 08:28:00,69.2,66.1,29.84,SE,131,0.1,1.2,90,0.24,CLR,,0.24,WeatherDisplay:10.37,2013-05-23 12:28:00,
2013-05-23 08:33:00,69.2,66.5,29.85,SE,136,0.0,0.0,91,0.24,CLR,,0.24,WeatherDisplay:10.37,2013-05-23 12:33:00,
2013-05-23 08:38:00,69.2,66.1,29.84,SE,136,0.4,1.2,90,0.14,CLR,,0.24,WeatherDisplay:10.37,2013-05-23 12:38:00,
2013-05-23 08:43:00,69.4,66.3,29.85,SE,143,0.9,2.3,90,0.07,CLR,,0.24,WeatherDisplay:10.37,2013-05-23 12:43:00,
2013-05-23 08:48:00,69.7,66.3,29.84,SE,134,1.5,3.5,89,0.02,CLR,,0.24,WeatherDisplay:10.37,2013-05-23 12:48:00,
2013-05-23 08:53:00,70.3,66.9,29.84,SE,146,1.2,2.3,89,0.00,CLR,,0.24,WeatherDisplay:10.37,2013-05-23 12:53:00,
2013-05-23 08:58:00,70.9,67.2,29.85,SSE,165,0.2,1.2,88,0.00,CLR,,0.24,WeatherDisplay:10.37,2013-05-23 12:58:00,
2013-05-23 09:03:00,71.0,67.9,29.85,South,172,1.1,3.5,90,0.00,CLR,,0.24,WeatherDisplay:10.37,2013-05-23 13:03:00,
2013-05-23 09:08:00,70.9,68.1,29.85,WSW,252,3.0,3.5,91,0.00,CLR,,0.24,WeatherDisplay:10.37,2013-05-23 13:08:00,
2013-05-23 09:13:00,70.8,68.0,29.85,SSE,148,1.3,2.3,91,0.00,CLR,,0.24,WeatherDisplay:10.37,2013-05-23 13:13:00,
2013-05-23 09:18:00,70.6,67.8,29.85,SSE,163,1.4,2.3,91,0.00,CLR,,0.24,WeatherDisplay:10.37,2013-05-23 13:18:00,
2013-05-23 09:23:00,70.5,67.7,29.84,WSW,248,0.4,1.2,91,0.00,CLR,,0.24,WeatherDisplay:10.37,2013-05-23 13:23:00,
2013-05-23 09:28:00,70.6,67.8,29.84,SE,146,1.0,2.3,91,0.00,CLR,,0.24,WeatherDisplay:10.37,2013-05-23 13:28:00,
2013-05-23 09:33:00,70.6,67.8,29.84,SE,144,0.0,0.0,91,0.00,CLR,,0.24,WeatherDisplay:10.37,2013-05-23 13:33:00,
2013-05-23 09:38:00,70.6,67.8,29.84,SE,144,0.1,0.0,91,0.00,CLR,,0.24,WeatherDisplay:10.37,2013-05-23 13:38:00,
2013-05-23 09:43:00,70.6,67.8,29.84,SE,144,0.3,1.2,91,0.00,CLR,,0.24,WeatherDisplay:10.37,2013-05-23 13:43:00,
2013-05-23 09:48:00,70.7,67.9,29.84,SW,219,2.1,4.6,91,0.00,CLR,,0.24,WeatherDisplay:10.37,2013-05-23 13:48:00,
2013-05-23 09:53:00,70.7,67.9,29.85,SSE,151,1.0,2.3,91,0.00,CLR,,0.24,WeatherDisplay:10.37,2013-05-23 13:53:00,
2013-05-23 09:58:00,70.6,67.8,29.85,South,188,0.9,3.5,91,0.00,CLR,,0.24,WeatherDisplay:10.37,2013-05-23 13:58:00,
2013-05-23 10:03:00,70.5,67.7,29.85,SSE,159,0.4,2.3,91,0.00,CLR,,0.24,WeatherDisplay:10.37,2013-05-23 14:03:00,
2013-05-23 10:08:00,70.5,67.7,29.85,SW,217,0.8,2.3,91,0.00,CLR,,0.24,WeatherDisplay:10.37,2013-05-23 14:08:00,
2013-05-23 10:13:00,70.4,67.6,29.85,South,184,0.7,2.0,91,0.00,CLR,,0.24,WeatherDisplay:10.37,2013-05-23 14:13:00,
2013-05-23 10:18:00,70.4,67.6,29.85,SE,141,1.6,3.5,91,0.00,CLR,,0.24,WeatherDisplay:10.37,2013-05-23 14:18:00,
2013-05-23 10:23:00,70.4,67.6,29.85,West,263,0.2,1.2,91,0.00,CLR,,0.24,WeatherDisplay:10.37,2013-05-23 14:23:00,
2013-05-23 10:28:00,70.4,67.6,29.85,SSW,207,1.9,3.5,91,0.00,CLR,,0.24,WeatherDisplay:10.37,2013-05-23 14:28:00,
2013-05-23 10:33:00,70.5,67.7,29.85,West,267,0.8,2.3,91,0.00,CLR,,0.24,WeatherDisplay:10.37,2013-05-23 14:33:00,
2013-05-23 10:38:00,70.5,67.7,29.85,WSW,241,1.5,5.8,91,0.00,CLR,,0.24,WeatherDisplay:10.37,2013-05-23 14:38:00,
2013-05-23 10:43:00,70.7,67.9,29.85,NW,311,1.2,3.5,91,0.00,CLR,,0.24,WeatherDisplay:10.37,2013-05-23 14:43:00,
2013-05-23 10:48:00,70.9,68.1,29.85,South,180,0.7,1.2,91,0.00,CLR,,0.24,WeatherDisplay:10.37,2013-05-23 14:48:00,
2013-05-23 10:53:00,71.3,68.5,29.84,ESE,115,0.9,2.3,91,0.00,CLR,,0.24,WeatherDisplay:10.37,2013-05-23 14:53:00,
2013-05-23 10:58:00,72.2,69.1,29.84,SW,229,0.9,3.5,90,0.00,CLR,,0.24,WeatherDisplay:10.37,2013-05-23 14:58:00,
2013-05-23 11:03:00,72.9,70.1,29.84,SW,223,1.5,3.5,91,0.00,CLR,,0.24,WeatherDisplay:10.37,2013-05-23 15:03:00,
2013-05-23 11:08:00,73.5,70.7,29.83,ENE,76,1.7,3.5,91,0.01,RA,,0.25,WeatherDisplay:10.37,2013-05-23 15:08:00,
2013-05-23 11:13:00,73.7,70.6,29.83,WSW,243,0.8,2.3,90,0.01,RA,,0.25,WeatherDisplay:10.37,2013-05-23 15:13:00,
2013-05-23 11:18:00,73.5,70.4,29.83,WSW,248,1.7,2.3,90,0.01,CLR,,0.25,WeatherDisplay:10.37,2013-05-23 15:18:00,
2013-05-23 11:23:00,73.4,70.3,29.84,WSW,238,2.9,3.5,90,0.01,CLR,,0.25,WeatherDisplay:10.37,2013-05-23 15:23:00,
2013-05-23 11:28:00,73.3,70.2,29.83,SSE,150,1.8,5.0,90,0.01,CLR,,0.25,WeatherDisplay:10.37,2013-05-23 15:28:00,
2013-05-23 11:33:00,73.3,70.2,29.83,West,259,3.0,5.8,90,0.01,CLR,,0.25,WeatherDisplay:10.37,2013-05-23 15:33:00,
2013-05-23 11:38:00,73.3,69.9,29.83,South,173,2.3,4.6,89,0.01,CLR,,0.25,WeatherDisplay:10.37,2013-05-23 15:38:00,
2013-05-23 11:43:00,73.3,69.5,29.83,SW,217,2.2,3.5,88,0.01,CLR,,0.25,WeatherDisplay:10.37,2013-05-23 15:43:00,
2013-05-23 11:48:00,73.2,69.8,29.83,West,273,2.1,11.5,89,0.01,CLR,,0.25,WeatherDisplay:10.37,2013-05-23 15:48:00,
2013-05-23 11:53:00,73.5,70.1,29.83,SSW,196,1.3,4.6,89,0.01,CLR,,0.25,WeatherDisplay:10.37,2013-05-23 15:53:00,
2013-05-23 11:58:00,73.8,70.4,29.83,SSE,150,2.2,3.5,89,0.01,CLR,,0.25,WeatherDisplay:10.37,2013-05-23 15:58:00,
2013-05-23 12:03:00,73.9,70.1,29.83,SSW,200,2.7,4.6,88,0.01,CLR,,0.25,WeatherDisplay:10.37,2013-05-23 16:03:00,
2013-05-23 12:08:00,74.0,69.9,29.83,SSW,192,3.5,5.8,87,0.00,CLR,,0.25,WeatherDisplay:10.37,2013-05-23 16:08:00,
2013-05-23 12:13:00,74.0,70.6,29.83,NW,315,2.0,5.0,89,0.00,CLR,,0.25,WeatherDisplay:10.37,2013-05-23 16:13:00,
2013-05-23 12:18:00,74.2,70.7,29.83,WSW,246,0.5,4.0,89,0.00,CLR,,0.25,WeatherDisplay:10.37,2013-05-23 16:18:00,
2013-05-23 12:23:00,74.5,70.7,29.83,SSE,167,4.0,5.8,88,0.00,CLR,,0.25,WeatherDisplay:10.37,2013-05-23 16:23:00,
2013-05-23 12:28:00,74.8,71.0,29.82,SW,219,2.3,4.6,88,0.00,CLR,,0.25,WeatherDisplay:10.37,2013-05-23 16:28:00,
2013-05-23 12:33:00,74.8,70.0,29.82,SW,217,6.5,8.0,85,0.00,CLR,,0.25,WeatherDisplay:10.37,2013-05-23 16:33:00,
2013-05-23 12:38:00,74.5,69.3,29.82,SE,129,3.9,6.9,84,0.00,CLR,,0.25,WeatherDisplay:10.37,2013-05-23 16:38:00,
2013-05-23 12:43:00,74.5,70.0,29.82,SE,140,1.1,6.9,86,0.00,CLR,,0.25,WeatherDisplay:10.37,2013-05-23 16:43:00,
2013-05-23 12:48:00,74.3,69.8,29.83,SSE,165,1.2,3.5,86,0.00,CLR,,0.25,WeatherDisplay:10.37,2013-05-23 16:48:00,
2013-05-23 12:53:00,73.8,69.3,29.83,SSE,165,1.0,3.5,86,0.00,CLR,,0.25,WeatherDisplay:10.37,2013-05-23 16:53:00,
2013-05-23 12:58:00,73.5,69.4,29.82,SSW,204,4.3,5.0,87,0.00,CLR,,0.25,WeatherDisplay:10.37,2013-05-23 16:58:00,
2013-05-23 13:03:00,73.6,69.2,29.82,North,360,2.6,5.8,86,0.00,CLR,,0.25,WeatherDisplay:10.37,2013-05-23 17:03:00,
2013-05-23 13:08:00,73.8,69.3,29.82,North,360,1.0,3.5,86,0.00,CLR,,0.25,WeatherDisplay:10.37,2013-05-23 17:08:00,
2013-05-23 13:13:00,74.4,70.3,29.82,North,360,1.0,2.3,87,0.00,CLR,,0.25,WeatherDisplay:10.37,2013-05-23 17:13:00,
2013-05-23 13:18:00,75.4,71.6,29.82,North,360,2.7,4.6,88,0.00,CLR,,0.25,WeatherDisplay:10.37,2013-05-23 17:18:00,
2013-05-23 13:23:00,75.9,70.4,29.81,North,360,2.9,5.8,83,0.00,CLR,,0.25,WeatherDisplay:10.37,2013-05-23 17:23:00,
2013-05-23 13:28:00,75.7,70.5,29.81,North,360,3.2,4.6,84,0.00,CLR,,0.25,WeatherDisplay:10.37,2013-05-23 17:28:00,
2013-05-23 13:33:00,75.7,69.8,29.81,North,360,11.4,13.8,82,0.00,CLR,,0.25,WeatherDisplay:10.37,2013-05-23 17:33:00,
2013-05-23 13:38:00,75.3,69.8,29.81,North,360,2.6,4.6,83,0.00,CLR,,0.25,WeatherDisplay:10.37,2013-05-23 17:38:00,
2013-05-23 13:43:00,75.2,69.3,29.80,North,360,4.4,6.9,82,0.00,CLR,,0.25,WeatherDisplay:10.37,2013-05-23 17:43:00,
2013-05-23 13:48:00,75.2,70.0,29.80,North,360,1.7,1.7,84,0.00,CLR,,0.25,WeatherDisplay:10.37,2013-05-23 17:48:00,
2013-05-23 13:53:00,75.4,70.6,29.80,North,360,2.6,5.8,85,0.00,CLR,,0.25,WeatherDisplay:10.37,2013-05-23 17:53:00,
2013-05-23 13:58:00,75.2,69.7,29.80,North,360,1.4,3.5,83,0.00,CLR,,0.25,WeatherDisplay:10.37,2013-05-23 17:58:00,
2013-05-23 14:03:00,75.0,69.8,29.79,North,360,1.8,3.5,84,0.00,CLR,,0.25,WeatherDisplay:10.37,2013-05-23 18:03:00,
2013-05-23 14:08:00,75.0,70.2,29.79,North,360,1.7,4.0,85,0.00,CLR,,0.25,WeatherDisplay:10.37,2013-05-23 18:08:00,
2013-05-23 14:13:00,75.3,70.1,29.79,North,360,2.4,5.8,84,0.00,CLR,,0.25,WeatherDisplay:10.37,2013-05-23 18:13:00,
2013-05-23 14:18:00,75.7,70.9,29.79,North,360,1.4,3.5,85,0.00,CLR,,0.25,WeatherDisplay:10.37,2013-05-23 18:18:00,
2013-05-23 14:23:00,75.9,70.0,29.79,North,360,2.1,7.0,82,0.00,CLR,,0.25,WeatherDisplay:10.37,2013-05-23 18:23:00,
2013-05-23 14:28:00,75.9,70.4,29.79,North,360,4.1,5.8,83,0.00,CLR,,0.25,WeatherDisplay:10.37,2013-05-23 18:28:00,
2013-05-23 14:33:00,75.8,69.6,29.78,North,360,4.0,4.0,81,0.00,CLR,,0.25,WeatherDisplay:10.37,2013-05-23 18:33:00,
2013-05-23 14:38:00,75.6,69.7,29.79,North,360,1.9,2.3,82,0.00,CLR,,0.25,WeatherDisplay:10.37,2013-05-23 18:38:00,
2013-05-23 14:43:00,75.2,69.3,29.79,North,360,0.6,1.2,82,0.00,CLR,,0.25,WeatherDisplay:10.37,2013-05-23 18:43:00,
2013-05-23 14:48:00,75.0,69.5,29.79,North,360,1.9,3.5,83,0.00,CLR,,0.25,WeatherDisplay:10.37,2013-05-23 18:48:00,
2013-05-23 14:53:00,74.9,69.4,29.79,North,360,1.5,3.5,83,0.00,CLR,,0.25,WeatherDisplay:10.37,2013-05-23 18:53:00,
2013-05-23 14:58:00,75.0,69.8,29.78,North,360,1.1,3.0,84,0.00,CLR,,0.25,WeatherDisplay:10.37,2013-05-23 18:58:00,
2013-05-23 15:03:00,75.5,70.7,29.78,North,360,1.5,3.5,85,0.00,CLR,,0.25,WeatherDisplay:10.37,2013-05-23 19:03:00,
2013-05-23 15:08:00,76.1,70.2,29.78,North,360,2.9,8.1,82,0.00,CLR,,0.25,WeatherDisplay:10.37,2013-05-23 19:08:00,
2013-05-23 15:14:00,76.5,70.6,29.78,North,360,3.6,3.6,82,0.00,CLR,,0.25,WeatherDisplay:10.37,2013-05-23 19:14:00,
2013-05-23 15:19:00,76.7,70.1,29.78,North,360,3.5,8.1,80,0.00,CLR,,0.25,WeatherDisplay:10.37,2013-05-23 19:19:00,
2013-05-23 15:24:00,77.5,70.1,29.77,North,360,6.4,8.0,78,0.00,CLR,,0.25,WeatherDisplay:10.37,2013-05-23 19:24:00,
2013-05-23 15:29:00,78.4,69.8,29.77,North,360,6.1,8.0,75,0.00,CLR,,0.25,WeatherDisplay:10.37,2013-05-23 19:29:00,
2013-05-23 15:34:00,78.1,68.7,29.77,North,360,3.2,4.6,73,0.00,CLR,,0.25,WeatherDisplay:10.37,2013-05-23 19:34:00,
2013-05-23 15:39:00,77.7,69.9,29.77,North,360,2.4,3.5,77,0.00,CLR,,0.25,WeatherDisplay:10.37,2013-05-23 19:39:00,
2013-05-23 15:44:00,77.0,68.5,29.78,North,360,8.6,13.8,75,0.00,CLR,,0.25,WeatherDisplay:10.37,2013-05-23 19:44:00,
2013-05-23 15:49:00,74.5,64.9,29.78,North,360,9.8,12.7,72,0.00,CLR,,0.25,WeatherDisplay:10.37,2013-05-23 19:49:00,
2013-05-23 15:54:00,72.5,64.9,29.79,WSW,257,4.4,8.1,77,0.00,CLR,,0.25,WeatherDisplay:10.37,2013-05-23 19:54:00,
2013-05-23 15:59:00,71.5,64.6,29.78,West,267,4.7,5.8,79,0.00,CLR,,0.25,WeatherDisplay:10.37,2013-05-23 19:59:00,
2013-05-23 16:04:00,70.8,64.7,29.78,West,267,6.3,8.1,81,0.00,CLR,,0.25,WeatherDisplay:10.37,2013-05-23 20:04:00,
2013-05-23 16:09:00,70.3,64.5,29.78,WSW,256,4.2,6.9,82,0.00,CLR,,0.25,WeatherDisplay:10.37,2013-05-23 20:09:00,
2013-05-23 16:14:00,70.0,64.9,29.78,West,271,3.5,6.9,84,0.00,CLR,,0.25,WeatherDisplay:10.37,2013-05-23 20:14:00,
2013-05-23 16:19:00,69.5,65.5,29.78,SSW,211,2.8,5.8,87,0.13,RA,,0.38,WeatherDisplay:10.37,2013-05-23 20:19:00,
2013-05-23 16:24:00,68.4,64.7,29.78,WSW,257,4.0,6.0,88,0.19,RA,,0.44,WeatherDisplay:10.37,2013-05-23 20:24:00,
2013-05-23 16:29:00,67.6,64.6,29.78,WSW,240,1.8,3.5,90,0.19,RA,,0.44,WeatherDisplay:10.37,2013-05-23 20:29:00,
2013-05-23 16:34:00,67.2,64.2,29.77,SW,218,2.7,3.5,90,0.20,RA,,0.45,WeatherDisplay:10.37,2013-05-23 20:34:00,
2013-05-23 16:39:00,67.1,64.4,29.77,West,259,1.2,2.3,91,0.21,RA,,0.46,WeatherDisplay:10.37,2013-05-23 20:39:00,
2013-05-23 16:44:00,67.2,64.5,29.77,SSW,193,1.0,2.3,91,0.21,RA,,0.46,WeatherDisplay:10.37,2013-05-23 20:44:00,
2013-05-23 16:49:00,67.6,64.9,29.77,SSW,193,0.0,0.0,91,0.21,CLR,,0.46,WeatherDisplay:10.37,2013-05-23 20:49:00,
2013-05-23 16:54:00,67.7,65.0,29.76,SSW,193,0.4,2.3,91,0.21,CLR,,0.46,WeatherDisplay:10.37,2013-05-23 20:54:00,
2013-05-23 16:59:00,68.0,65.3,29.76,SW,225,1.2,3.5,91,0.21,CLR,,0.46,WeatherDisplay:10.37,2013-05-23 20:59:00,
2013-05-23 17:04:00,68.3,65.6,29.77,South,178,0.6,1.2,91,0.21,CLR,,0.46,WeatherDisplay:10.37,2013-05-23 21:04:00,
2013-05-23 17:09:00,68.3,65.6,29.77,South,178,0.2,1.2,91,0.21,CLR,,0.46,WeatherDisplay:10.37,2013-05-23 21:09:00,
2013-05-23 17:14:00,68.7,66.0,29.77,South,178,0.0,1.0,91,0.21,CLR,,0.46,WeatherDisplay:10.37,2013-05-23 21:14:00,
2013-05-23 17:19:00,69.0,65.9,29.77,SE,146,1.2,2.3,90,0.08,CLR,,0.46,WeatherDisplay:10.37,2013-05-23 21:19:00,
2013-05-23 17:24:00,69.2,66.5,29.77,SE,133,0.9,2.3,91,0.02,CLR,,0.46,WeatherDisplay:10.37,2013-05-23 21:24:00,
2013-05-23 17:29:00,69.2,66.5,29.77,South,177,2.6,4.6,91,0.02,CLR,,0.46,WeatherDisplay:10.37,2013-05-23 21:29:00,
2013-05-23 17:34:00,69.1,66.4,29.77,SSE,156,2.8,4.6,91,0.01,CLR,,0.46,WeatherDisplay:10.37,2013-05-23 21:34:00,
2013-05-23 17:39:00,69.1,66.4,29.77,SE,129,0.8,3.5,91,0.00,CLR,,0.46,WeatherDisplay:10.37,2013-05-23 21:39:00,
2013-05-23 17:44:00,69.1,66.4,29.77,ESE,103,0.9,2.3,91,0.00,CLR,,0.46,WeatherDisplay:10.37,2013-05-23 21:44:00,
2013-05-23 17:49:00,69.1,66.4,29.77,East,100,2.1,4.6,91,0.00,CLR,,0.46,WeatherDisplay:10.37,2013-05-23 21:49:00,
2013-05-23 17:54:00,69.1,66.4,29.77,SE,137,0.3,1.2,91,0.00,CLR,,0.46,WeatherDisplay:10.37,2013-05-23 21:54:00,
2013-05-23 17:59:00,69.0,66.3,29.77,ESE,121,0.2,1.2,91,0.00,CLR,,0.46,WeatherDisplay:10.37,2013-05-23 21:59:00,
2013-05-23 18:04:00,69.0,66.3,29.77,ESE,121,2.0,5.8,91,0.00,CLR,,0.46,WeatherDisplay:10.37,2013-05-23 22:04:00,
2013-05-23 18:09:00,69.0,66.3,29.77,SW,217,0.8,2.3,91,0.00,CLR,,0.46,WeatherDisplay:10.37,2013-05-23 22:09:00,
2013-05-23 18:14:00,69.1,66.4,29.77,NE,53,2.5,3.5,91,0.00,CLR,,0.46,WeatherDisplay:10.37,2013-05-23 22:14:00,
2013-05-23 18:19:00,69.1,66.4,29.76,South,169,1.0,3.5,91,0.00,CLR,,0.46,WeatherDisplay:10.37,2013-05-23 22:19:00,
2013-05-23 18:24:00,69.2,66.5,29.76,SE,128,2.2,3.5,91,0.00,CLR,,0.46,WeatherDisplay:10.37,2013-05-23 22:24:00,
2013-05-23 18:29:00,69.1,66.4,29.76,SSE,168,1.2,3.5,91,0.00,CLR,,0.46,WeatherDisplay:10.37,2013-05-23 22:29:00,
2013-05-23 18:34:00,69.0,66.3,29.76,SE,133,1.0,2.3,91,0.00,CLR,,0.46,WeatherDisplay:10.37,2013-05-23 22:34:00,
2013-05-23 18:39:00,69.0,66.3,29.76,South,180,1.2,1.2,91,0.01,RA,,0.47,WeatherDisplay:10.37,2013-05-23 22:39:00,
2013-05-23 18:44:00,68.9,66.2,29.76,South,173,0.3,3.5,91,0.01,RA,,0.47,WeatherDisplay:10.37,2013-05-23 22:44:00,
2013-05-23 18:49:00,68.8,66.1,29.75,SW,229,1.0,2.3,91,0.02,RA,,0.48,WeatherDisplay:10.37,2013-05-23 22:49:00,
2013-05-23 18:54:00,68.7,66.0,29.75,West,262,3.0,4.6,91,0.03,RA,,0.49,WeatherDisplay:10.37,2013-05-23 22:54:00,
2013-05-23 18:59:00,68.6,65.9,29.75,SW,225,0.2,1.2,91,0.05,RA,,0.51,WeatherDisplay:10.37,2013-05-23 22:59:00,
2013-05-23 19:04:00,68.5,65.8,29.75,SW,225,0.1,1.2,91,0.07,RA,,0.53,WeatherDisplay:10.37,2013-05-23 23:04:00,
2013-05-23 19:09:00,68.4,65.7,29.75,SSE,148,1.7,4.6,91,0.10,RA,,0.56,WeatherDisplay:10.37,2013-05-23 23:09:00,
2013-05-23 19:14:00,68.3,65.6,29.75,NW,311,1.6,2.3,91,0.12,RA,,0.58,WeatherDisplay:10.37,2013-05-23 23:14:00,
2013-05-23 19:19:00,68.3,65.6,29.75,NE,37,1.0,2.3,91,0.12,RA,,0.58,WeatherDisplay:10.37,2013-05-23 23:19:00,
2013-05-23 19:24:00,68.2,65.5,29.75,WSW,242,0.0,1.2,91,0.15,RA,,0.61,WeatherDisplay:10.37,2013-05-23 23:24:00,
2013-05-23 19:29:00,68.3,65.6,29.75,SE,142,1.1,2.3,91,0.18,RA,,0.64,WeatherDisplay:10.37,2013-05-23 23:29:00,
2013-05-23 19:34:00,68.1,65.4,29.75,NE,40,1.2,2.3,91,0.19,RA,,0.65,WeatherDisplay:10.37,2013-05-23 23:34:00,
2013-05-23 19:39:00,68.1,65.4,29.76,West,277,1.0,2.3,91,0.18,RA,,0.66,WeatherDisplay:10.37,2013-05-23 23:39:00,
2013-05-23 19:44:00,68.1,65.4,29.76,WNW,287,0.0,2.3,91,0.19,RA,,0.67,WeatherDisplay:10.37,2013-05-23 23:44:00,
2013-05-23 19:49:00,68.0,65.3,29.76,WNW,286,1.4,2.0,91,0.20,RA,,0.68,WeatherDisplay:10.37,2013-05-23 23:49:00,
2013-05-23 19:54:00,67.9,65.2,29.76,WSW,243,0.1,2.3,91,0.21,RA,,0.70,WeatherDisplay:10.37,2013-05-23 23:54:00,
2013-05-23 19:59:00,67.9,65.2,29.77,SSW,208,2.3,4.6,91,0.22,RA,,0.73,WeatherDisplay:10.37,2013-05-23 23:59:00,
2013-05-23 20:04:00,67.8,65.1,29.77,SSW,194,0.1,0.0,91,0.27,RA,,0.81,WeatherDisplay:10.37,2013-05-24 00:04:00,
2013-05-23 20:09:00,67.4,64.7,29.77,WSW,253,2.3,2.3,91,0.40,RA,,0.98,WeatherDisplay:10.37,2013-05-24 00:09:00,
2013-05-23 20:14:00,66.6,64.2,29.78,WSW,254,2.4,3.5,92,0.57,RA,,1.20,WeatherDisplay:10.37,2013-05-24 00:14:00,
2013-05-23 20:19:00,65.9,63.5,29.77,West,265,1.9,2.3,92,0.93,RA,,1.56,WeatherDisplay:10.37,2013-05-24 00:19:00,
2013-05-23 20:24:00,64.9,62.5,29.77,West,271,1.9,3.5,92,1.21,RA,,1.85,WeatherDisplay:10.37,2013-05-24 00:24:00,
2013-05-23 20:29:00,64.5,62.1,29.76,East,87,2.5,4.6,92,1.54,RA,,2.22,WeatherDisplay:10.37,2013-05-24 00:29:00,
2013-05-23 20:34:00,64.3,61.6,29.76,SW,232,1.3,3.5,91,1.65,RA,,2.31,WeatherDisplay:10.37,2013-05-24 00:34:00,
2013-05-23 20:39:00,64.2,61.5,29.75,SSE,154,0.7,2.3,91,1.66,RA,,2.31,WeatherDisplay:10.37,2013-05-24 00:39:00,
2013-05-23 20:44:00,64.4,61.4,29.75,South,189,0.3,2.0,90,1.65,RA,,2.31,WeatherDisplay:10.37,2013-05-24 00:44:00,
2013-05-23 20:49:00,64.5,61.5,29.75,NW,325,0.4,1.2,90,1.63,CLR,,2.31,WeatherDisplay:10.37,2013-05-24 00:49:00,
2013-05-23 20:54:00,64.5,61.5,29.75,NW,325,0.0,0.0,90,1.61,CLR,,2.31,WeatherDisplay:10.37,2013-05-24 00:54:00,
2013-05-23 20:59:00,64.5,61.5,29.75,NW,325,0.8,2.3,90,1.58,CLR,,2.31,WeatherDisplay:10.37,2013-05-24 00:59:00,
2013-05-23 21:04:00,64.5,61.5,29.74,NW,325,1.3,2.3,90,1.51,CLR,,2.31,WeatherDisplay:10.37,2013-05-24 01:04:00,
2013-05-23 21:09:00,64.7,61.7,29.74,SW,215,0.9,3.5,90,1.35,CLR,,2.31,WeatherDisplay:10.37,2013-05-24 01:09:00,
2013-05-23 21:14:00,64.8,61.5,29.74,South,184,0.4,1.2,89,1.16,CLR,,2.31,WeatherDisplay:10.37,2013-05-24 01:14:00,
2013-05-23 21:19:00,65.0,61.7,29.74,ESE,123,2.2,3.5,89,0.80,CLR,,2.31,WeatherDisplay:10.37,2013-05-24 01:19:00,
2013-05-23 21:24:00,65.3,62.0,29.74,SE,144,0.0,0.0,89,0.49,CLR,,2.31,WeatherDisplay:10.37,2013-05-24 01:24:00,
2013-05-23 21:29:00,65.5,62.2,29.73,SSE,153,0.8,2.3,89,0.13,CLR,,2.31,WeatherDisplay:10.37,2013-05-24 01:29:00,
2013-05-23 21:34:00,65.7,62.4,29.73,SE,142,2.1,3.5,89,0.01,CLR,,2.31,WeatherDisplay:10.37,2013-05-24 01:34:00,
2013-05-23 21:39:00,66.2,62.9,29.73,SE,134,3.8,4.0,89,0.00,CLR,,2.31,WeatherDisplay:10.37,2013-05-24 01:39:00,
2013-05-23 21:44:00,66.6,63.3,29.73,ESE,111,0.9,2.3,89,0.00,CLR,,2.31,WeatherDisplay:10.37,2013-05-24 01:44:00,
2013-05-23 21:49:00,66.8,63.5,29.74,South,191,1.8,3.5,89,0.00,CLR,,2.31,WeatherDisplay:10.37,2013-05-24 01:49:00,
2013-05-23 21:54:00,66.9,63.6,29.74,SSE,164,0.5,2.3,89,0.00,CLR,,2.31,WeatherDisplay:10.37,2013-05-24 01:54:00,
2013-05-23 21:59:00,67.0,63.6,29.74,SSE,155,0.8,5.0,89,0.00,CLR,,2.31,WeatherDisplay:10.37,2013-05-24 01:59:00,
2013-05-23 22:04:00,67.1,63.7,29.73,SSE,163,1.6,3.5,89,0.00,CLR,,2.31,WeatherDisplay:10.37,2013-05-24 02:04:00,
2013-05-23 22:09:00,67.1,63.7,29.73,South,188,1.0,3.5,89,0.00,CLR,,2.31,WeatherDisplay:10.37,2013-05-24 02:09:00,
2013-05-23 22:14:00,67.2,63.8,29.74,East,90,1.8,4.6,89,0.00,CLR,,2.31,WeatherDisplay:10.37,2013-05-24 02:14:00,
2013-05-23 22:19:00,67.2,63.8,29.73,SSE,155,2.0,4.6,89,0.00,CLR,,2.31,WeatherDisplay:10.37,2013-05-24 02:19:00,
2013-05-23 22:24:00,67.3,63.9,29.74,South,178,0.6,2.3,89,0.00,CLR,,2.31,WeatherDisplay:10.37,2013-05-24 02:24:00,
2013-05-23 22:29:00,67.3,63.9,29.74,ESE,105,0.3,2.3,89,0.00,CLR,,2.31,WeatherDisplay:10.37,2013-05-24 02:29:00,
2013-05-23 22:34:00,67.2,63.8,29.73,ESE,120,0.0,1.0,89,0.00,CLR,,2.31,WeatherDisplay:10.37,2013-05-24 02:34:00,
2013-05-23 22:39:00,67.2,63.8,29.73,SE,146,1.7,3.5,89,0.00,CLR,,2.31,WeatherDisplay:10.37,2013-05-24 02:39:00,
2013-05-23 22:44:00,67.2,63.8,29.73,East,96,0.6,3.5,89,0.00,CLR,,2.31,WeatherDisplay:10.37,2013-05-24 02:44:00,
2013-05-23 22:49:00,67.2,63.8,29.73,South,174,0.2,2.3,89,0.00,CLR,,2.31,WeatherDisplay:10.37,2013-05-24 02:49:00,
2013-05-23 22:54:00,67.2,63.8,29.73,South,180,1.4,3.5,89,0.00,CLR,,2.31,WeatherDisplay:10.37,2013-05-24 02:54:00,
2013-05-23 22:59:00,67.2,63.8,29.73,ESE,110,0.2,2.3,89,0.00,CLR,,2.31,WeatherDisplay:10.37,2013-05-24 02:59:00,
2013-05-23 23:04:00,67.2,63.8,29.72,SE,126,0.1,0.0,89,0.00,CLR,,2.31,WeatherDisplay:10.37,2013-05-24 03:04:00,
2013-05-23 23:09:00,67.2,63.8,29.72,SSE,148,2.1,3.5,89,0.00,CLR,,2.31,WeatherDisplay:10.37,2013-05-24 03:09:00,
2013-05-23 23:14:00,67.2,63.8,29.72,SSW,201,2.5,4.6,89,0.00,CLR,,2.31,WeatherDisplay:10.37,2013-05-24 03:14:00,
2013-05-23 23:19:00,67.2,63.8,29.74,SW,225,8.7,13.8,89,0.00,CLR,,2.32,WeatherDisplay:10.37,2013-05-24 03:19:00,
2013-05-23 23:24:00,65.8,63.4,29.75,WSW,243,7.1,13.8,92,0.01,RA,,2.32,WeatherDisplay:10.37,2013-05-24 03:24:00,
2013-05-23 23:29:00,64.5,62.1,29.75,SW,215,3.0,6.9,92,0.01,RA,,2.32,WeatherDisplay:10.37,2013-05-24 03:29:00,
2013-05-23 23:34:00,63.7,61.3,29.75,West,270,3.1,6.0,92,0.01,CLR,,2.32,WeatherDisplay:10.37,2013-05-24 03:34:00,
2013-05-23 23:39:00,63.2,60.8,29.74,SW,233,0.9,3.5,92,0.01,CLR,,2.32,WeatherDisplay:10.37,2013-05-24 03:39:00,
2013-05-23 23:44:00,62.9,60.5,29.74,WSW,247,1.4,2.3,92,0.02,RA,,2.33,WeatherDisplay:10.37,2013-05-24 03:44:00,
2013-05-23 23:49:00,62.7,60.3,29.74,South,190,0.1,0.0,92,0.02,RA,,2.33,WeatherDisplay:10.37,2013-05-24 03:49:00,
2013-05-23 23:54:00,62.6,59.9,29.74,South,182,0.3,1.2,91,0.02,CLR,,2.33,WeatherDisplay:10.37,2013-05-24 03:54:00,
2013-05-23 23:59:00,62.6,59.9,29.74,South,182,0.1,1.0,91,0.03,RA,,2.34,WeatherDisplay:10.37,2013-05-24 03:59:00,